This is the latest recevied weather packets stored in our database for station/object KB4KY. If no packets are shown the sender has not sent any weather packets the latest 10 day(s).
| Time | Temp. | Humidity | Pressure | Rain* | Wind** | Luminosity | Snow |
|---|---|---|---|---|---|---|---|
| 1778169914 | 15.56° C | 46% | 1015.6 hPa | 0 mm | - | - | - |
| 1778169703 | 15° C | 49% | 1015.7 hPa | 0 mm | - | - | - |
| 1778169609 | 15.56° C | 49% | 1015.7 hPa | 0 mm | - | - | - |
| 1778169308 | 15.56° C | 47% | 1015.7 hPa | 0 mm | - | - | - |
| 1778169009 | 15° C | 47% | 1015.7 hPa | 0 mm | - | - | - |
| 1778168709 | 15° C | 48% | 1015.7 hPa | 0 mm | - | - | - |
| 1778168406 | 15° C | 46% | 1015.7 hPa | 0 mm | - | - | - |
| 1778168105 | 15° C | 49% | 1015.7 hPa | 0 mm | - | - | - |
| 1778167854 | 14.44° C | 49% | 1015.7 hPa | 0 mm | - | - | - |
| 1778167810 | 15° C | 50% | 1015.8 hPa | 0 mm | - | - | - |
| 1778167505 | 14.44° C | 52% | 1015.5 hPa | 0 mm | - | - | - |
| 1778167205 | 14.44° C | 49% | 1015.7 hPa | 0 mm | - | - | - |
| 1778167027 | 15° C | 48% | 1015.8 hPa | 0 mm | - | - | - |
| 1778166906 | 15° C | 48% | 1015.8 hPa | 0 mm | - | - | - |
| 1778166609 | 15° C | 47% | 1015.7 hPa | 0 mm | - | - | - |
| 1778166398 | 15° C | 48% | 1015.7 hPa | 0 mm | - | - | - |
| 1778166304 | 15° C | 48% | 1015.7 hPa | 0 mm | - | - | - |
| 1778166067 | 14.44° C | 49% | 1015.8 hPa | 0 mm | - | - | - |
| 1778166004 | 15° C | 52% | 1015.5 hPa | 0 mm | - | - | - |
| 1778165706 | 15° C | 48% | 1015.6 hPa | 0 mm | - | - | - |
| 1778165403 | 14.44° C | 49% | 1015.8 hPa | 0 mm | - | - | - |
| 1778165105 | 14.44° C | 49% | 1015.8 hPa | 0 mm | - | - | - |
| 1778164803 | 14.44° C | 49% | 1015.8 hPa | 0 mm | - | - | - |
| 1778164505 | 15° C | 53% | 1015.8 hPa | 0 mm | - | - | - |
| 1778164202 | 14.44° C | 52% | 1015.8 hPa | 0 mm | - | - | - |
* Rain latest hour (hover to see other rain measurements)
** Current wind speed in m/s (hover to see current wind gust speed)